Cienfuegos, Cuba

9:19 AM CST on December 08, 2019 (GMT -0500)
Jaime Gonzalez

Weather History for MUCF - October, 2019

Change the Weather History Date:

Tuesday, October 8, 2019

  Actual Average (WUND) Record (WUND)
Temperature  
Mean Temperature 80 °F -  
Max Temperature 89 °F - - (-1)
Min Temperature 71 °F - - (-1)
Cooling Degree Days 15    
Growing Degree Days 30 (Base 50)    
Moisture  
Dew Point 76 °F    
Average Humidity 89    
Maximum Humidity 100    
Minimum Humidity 66    
Precipitation  
Precipitation 0.00 in - - ()
Sea Level Pressure  
Sea Level Pressure 29.92 in    
Wind  
Wind Speed 4 mph ()    
Max Wind Speed 12 mph    
Max Gust Speed -    
Visibility 5.9 miles    
Events      
Averages and records for this station are not official NWS values.
T = Trace of Precipitation, MM = Missing Value Source: Averaged Metar Reports

Daily Weather History Graph

Daily Weather History Graph

Search for Another Location

Airport or City:

Astronomy

Oct. 08, 2019 Rise Set
Actual Time 7:15 AM CDT 7:02 PM CDT
Civil Twilight 6:52 AM CDT 7:25 PM CDT
Nautical Twilight 6:26 AM CDT 7:51 PM CDT
Astronomical Twilight 6:00 AM CDT 8:17 PM CDT
Moon 4:17 PM CDT 2:49 AM CDT
Length of Visible Light 12h 32m
Length of Day
11h 47m
Waxing Gibbous, 77% of the Moon is Illuminated
Oct 8
Waxing Gibbous
Oct 13
Full
Oct 21
Last Quarter
Oct 27
New
Nov 4
First Quarter

Hourly Weather History & Observations

Time (CDT) Temp. Heat Index Dew Point Humidity Pressure Visibility Wind Dir Wind Speed Gust Speed Precip Events Conditions
12:59 AM 73.4 °F - 73.4 °F 100% 29.92 in - Variable 1.2 mph - N/A   Unknown
1:59 AM 73.4 °F - 73.4 °F 100% 29.89 in - East 3.5 mph - N/A   Unknown
2:59 AM 73.4 °F - 73.4 °F 100% 29.89 in - Variable 1.2 mph - N/A   Unknown
3:59 AM 71.6 °F - 71.6 °F 100% 29.89 in - East 3.5 mph - N/A   Unknown
4:59 AM 71.6 °F - 71.6 °F 100% 29.89 in - East 3.5 mph - N/A   Unknown
5:59 AM 71.6 °F - 71.6 °F 100% 29.92 in - ENE 3.5 mph - N/A   Unknown
6:59 AM 71.6 °F - 71.6 °F 100% 29.92 in - ENE 3.5 mph - N/A   Unknown
7:59 AM 73.4 °F - 73.4 °F 100% 29.92 in - East 3.5 mph - N/A   Unknown
8:53 AM 78.8 °F - 75.2 °F 89% 29.95 in 5.6 mi Variable 1.2 mph - N/A   Partly Cloudy
9:50 AM 84.2 °F 96.1 °F 78.8 °F 84% 29.95 in 6.2 mi Variable 1.2 mph - N/A   Partly Cloudy
10:51 AM 86.0 °F 99.3 °F 78.8 °F 79% 29.95 in 6.2 mi South 4.6 mph - N/A   Scattered Clouds
11:50 AM 87.8 °F 102.5 °F 78.8 °F 75% 29.95 in 5.6 mi South 8.1 mph - N/A   Scattered Clouds
12:57 PM 89.6 °F 102.2 °F 77.0 °F 66% 29.92 in 5.6 mi SSW 9.2 mph - N/A   Scattered Clouds
1:50 PM 87.8 °F 102.5 °F 78.8 °F 75% 29.92 in 6.2 mi SSW 11.5 mph - N/A   Scattered Clouds
2:50 PM 87.8 °F 102.5 °F 78.8 °F 75% 29.89 in 6.2 mi SSW 10.4 mph - N/A   Scattered Clouds
3:56 PM 87.8 °F 102.5 °F 78.8 °F 75% 29.89 in 5.6 mi SSW 9.2 mph - N/A   Scattered Clouds
4:59 PM 86.0 °F 99.3 °F 78.8 °F 79% 29.89 in - SSW 10.4 mph - N/A   Unknown
5:59 PM 86.0 °F 99.3 °F 78.8 °F 79% 29.89 in - SSW 8.1 mph - N/A   Unknown
6:59 PM 82.4 °F 92.4 °F 78.8 °F 89% 29.92 in - SSW 4.6 mph - N/A   Unknown
7:59 PM 82.4 °F 92.4 °F 78.8 °F 89% 29.92 in - SW 3.5 mph - N/A   Unknown
8:59 PM 80.6 °F 88.1 °F 78.8 °F 94% 29.95 in - Variable 1.2 mph - N/A   Unknown
9:58 PM 78.8 °F - 77.0 °F 94% 29.95 in - ESE 4.6 mph - N/A   Unknown
10:58 PM 77.0 °F - 75.2 °F 94% 29.98 in - East 4.6 mph - N/A   Unknown
11:58 PM 77.0 °F - 75.2 °F 94% 29.98 in - Variable 2.3 mph - N/A   Unknown